******** Week 361 almanac for PRN-1 ******** ID: 1 Health: 0 Eccentricity: 0.00160074234 Time of Applicability(s): 61440 Orbital Inclination(rad): 0.9582130834 Rate of Right Ascen(r/s): -8.034620388e-09 SQRT(A) (m 1/2): 5153.57373 Right Ascen at Week(rad): 3.012875338 Argument of Perigee(rad): 0.09739691937 Mean Anom(rad): 0.9082499513 Af0(s): 0.0002539882446 Af1(s/s): -7.275958e-12 week: 361 ******** Week 361 almanac for PRN-2 ******** ID: 2 Health: 0 Eccentricity: 0.01689004898 Time of Applicability(s): 61440 Orbital Inclination(rad): 0.9634322133 Rate of Right Ascen(r/s): -7.977475151e-09 SQRT(A) (m 1/2): 5153.541016 Right Ascen at Week(rad): 2.850435162 Argument of Perigee(rad): -0.8086539267 Mean Anom(rad): 2.380837054 Af0(s): 4.220576172e-05 Af1(s/s): 7.275958e-12 week: 361 ******** Week 361 almanac for PRN-3 ******** ID: 3 Health: 0 Eccentricity: 0.006505012512 Time of Applicability(s): 61440 Orbital Inclination(rad): 0.9933987677 Rate of Right Ascen(r/s): -7.463168014e-09 SQRT(A) (m 1/2): 5153.584961 Right Ascen at Week(rad): -2.283414293 Argument of Perigee(rad): 1.202402003 Mean Anom(rad): -1.21166094 Af0(s): 0.0004318553833 Af1(s/s): -1.091394e-11 week: 361 ******** Week 361 almanac for PRN-4 ******** ID: 4 Health: 0 Eccentricity: 0.003732681274 Time of Applicability(s): 61440 Orbital Inclination(rad): 0.9704310007 Rate of Right Ascen(r/s): -7.840326581e-09 SQRT(A) (m 1/2): 5153.675781 Right Ascen at Week(rad): -1.212733903 Argument of Perigee(rad): -2.876989583 Mean Anom(rad): 1.765265843 Af0(s): 3.768371582e-05 Af1(s/s): 3.637979e-12 week: 361 ******** Week 361 almanac for PRN-5 ******** ID: 5 Health: 0 Eccentricity: 0.005403518677 Time of Applicability(s): 61440 Orbital Inclination(rad): 0.9799644516 Rate of Right Ascen(r/s): -7.611745631e-09 SQRT(A) (m 1/2): 5153.666016 Right Ascen at Week(rad): -2.343229058 Argument of Perigee(rad): 1.417060818 Mean Anom(rad): 2.431493623 Af0(s): -0.0001816355103 Af1(s/s): 0 week: 361 ******** Week 361 almanac for PRN-6 ******** ID: 6 Health: 0 Eccentricity: 0.003851413727 Time of Applicability(s): 61440 Orbital Inclination(rad): 0.9870890733 Rate of Right Ascen(r/s): -7.771752296e-09 SQRT(A) (m 1/2): 5153.594727 Right Ascen at Week(rad): 2.96358497 Argument of Perigee(rad): -0.5608220281 Mean Anom(rad): 0.1020988551 Af0(s): -0.0004838589111 Af1(s/s): 0 week: 361 ******** Week 361 almanac for PRN-7 ******** ID: 7 Health: 0 Eccentricity: 0.02051591873 Time of Applicability(s): 61440 Orbital Inclination(rad): 0.9512862014 Rate of Right Ascen(r/s): -7.920329913e-09 SQRT(A) (m 1/2): 5153.564453 Right Ascen at Week(rad): -0.2040411663 Argument of Perigee(rad): -1.99027753 Mean Anom(rad): -0.7576895122 Af0(s): -0.0001251099365 Af1(s/s): -3.637979e-12 week: 361 ******** Week 361 almanac for PRN-8 ******** ID: 8 Health: 0 Eccentricity: 0.01158380508 Time of Applicability(s): 61440 Orbital Inclination(rad): 0.9431608969 Rate of Right Ascen(r/s): -8.228914196e-09 SQRT(A) (m 1/2): 5153.634277 Right Ascen at Week(rad): 1.843056945 Argument of Perigee(rad): 0.5252067842 Mean Anom(rad): 2.06868919 Af0(s): 0.0003806055298 Af1(s/s): -7.275958e-12 week: 361 ******** Week 361 almanac for PRN-9 ******** ID: 9 Health: 0 Eccentricity: 0.003348827362 Time of Applicability(s): 61440 Orbital Inclination(rad): 0.964588691 Rate of Right Ascen(r/s): -7.908900866e-09 SQRT(A) (m 1/2): 5153.71875 Right Ascen at Week(rad): -1.277039755 Argument of Perigee(rad): 2.068261878 Mean Anom(rad): 2.659494626 Af0(s): 0.0006067078247 Af1(s/s): 0 week: 361 ******** Week 361 almanac for PRN-10 ******** ID: 10 Health: 0 Eccentricity: 0.01094102859 Time of Applicability(s): 61440 Orbital Inclination(rad): 0.9929313829 Rate of Right Ascen(r/s): -7.474597061e-09 SQRT(A) (m 1/2): 5153.61084 Right Ascen at Week(rad): -2.28592349 Argument of Perigee(rad): -2.255771181 Mean Anom(rad): -2.20280952 Af0(s): -0.0004665244019 Af1(s/s): 0 week: 361 ******** Week 361 almanac for PRN-11 ******** ID: 11 Health: 0 Eccentricity: 0.002201080322 Time of Applicability(s): 61440 Orbital Inclination(rad): 0.9639535271 Rate of Right Ascen(r/s): -7.977475151e-09 SQRT(A) (m 1/2): 5153.527832 Right Ascen at Week(rad): 2.982240663 Argument of Perigee(rad): -2.303522699 Mean Anom(rad): 1.19578746 Af0(s): -0.0003270946533 Af1(s/s): 1.455192e-11 week: 361 ******** Week 361 almanac for PRN-12 ******** ID: 12 Health: 0 Eccentricity: 0.009011745453 Time of Applicability(s): 61440 Orbital Inclination(rad): 0.9591418608 Rate of Right Ascen(r/s): -7.748894201e-09 SQRT(A) (m 1/2): 5153.724121 Right Ascen at Week(rad): 0.9134720773 Argument of Perigee(rad): 1.561293212 Mean Anom(rad): -1.422030152 Af0(s): -0.0004800905395 Af1(s/s): 0 week: 361 ******** Week 361 almanac for PRN-13 ******** ID: 13 Health: 0 Eccentricity: 0.01000738144 Time of Applicability(s): 61440 Orbital Inclination(rad): 0.9760875548 Rate of Right Ascen(r/s): -7.806039438e-09 SQRT(A) (m 1/2): 5153.617188 Right Ascen at Week(rad): -1.101804546 Argument of Perigee(rad): 0.996178584 Mean Anom(rad): 1.82302419 Af0(s): 0.0005403844849 Af1(s/s): 0 week: 361 ******** Week 361 almanac for PRN-14 ******** ID: 14 Health: 0 Eccentricity: 0.006746292114 Time of Applicability(s): 61440 Orbital Inclination(rad): 0.9425197409 Rate of Right Ascen(r/s): -7.874613723e-09 SQRT(A) (m 1/2): 5153.603516 Right Ascen at Week(rad): 0.8587360026 Argument of Perigee(rad): -2.747316149 Mean Anom(rad): -1.577089544 Af0(s): 0.0005833439209 Af1(s/s): 3.637979e-12 week: 361 ******** Week 361 almanac for PRN-15 ******** ID: 15 Health: 0 Eccentricity: 0.01660823822 Time of Applicability(s): 61440 Orbital Inclination(rad): 0.942471804 Rate of Right Ascen(r/s): -8.103194673e-09 SQRT(A) (m 1/2): 5153.638672 Right Ascen at Week(rad): -1.421281512 Argument of Perigee(rad): 1.502855884 Mean Anom(rad): 1.071220804 Af0(s): 0.000309760144 Af1(s/s): 3.637979e-12 week: 361 ******** Week 361 almanac for PRN-16 ******** ID: 16 Health: 0 Eccentricity: 0.01504325867 Time of Applicability(s): 61440 Orbital Inclination(rad): 0.9582610203 Rate of Right Ascen(r/s): -7.771752296e-09 SQRT(A) (m 1/2): 5153.604004 Right Ascen at Week(rad): 0.9304398672 Argument of Perigee(rad): 0.929788225 Mean Anom(rad): 3.097679459 Af0(s): 0.0001756061157 Af1(s/s): 7.275958e-12 week: 361 ******** Week 361 almanac for PRN-17 ******** ID: 17 Health: 0 Eccentricity: 0.01266002655 Time of Applicability(s): 61440 Orbital Inclination(rad): 0.9588662236 Rate of Right Ascen(r/s): -8.103194673e-09 SQRT(A) (m 1/2): 5153.542969 Right Ascen at Week(rad): 1.947891574 Argument of Perigee(rad): -1.12034564 Mean Anom(rad): 2.00146443 Af0(s): -6.481599121e-05 Af1(s/s): -1.091394e-11 week: 361 ******** Week 361 almanac for PRN-18 ******** ID: 18 Health: 0 Eccentricity: 0.005752563477 Time of Applicability(s): 61440 Orbital Inclination(rad): 0.9720368868 Rate of Right Ascen(r/s): -7.920329913e-09 SQRT(A) (m 1/2): 5153.589355 Right Ascen at Week(rad): 2.958469579 Argument of Perigee(rad): -2.865972335 Mean Anom(rad): 0.01724529965 Af0(s): -0.0003218189331 Af1(s/s): 1.091394e-11 week: 361 ******** Week 361 almanac for PRN-19 ******** ID: 19 Health: 0 Eccentricity: 0.01114034653 Time of Applicability(s): 61440 Orbital Inclination(rad): 0.9580453042 Rate of Right Ascen(r/s): -8.114623721e-09 SQRT(A) (m 1/2): 5153.668457 Right Ascen at Week(rad): 1.991792786 Argument of Perigee(rad): 2.933359631 Mean Anom(rad): -2.471524305 Af0(s): 0.000547921228 Af1(s/s): 0 week: 361 ******** Week 361 almanac for PRN-20 ******** ID: 20 Health: 255 Eccentricity: 0.002275943756 Time of Applicability(s): 61440 Orbital Inclination(rad): 0.9599987329 Rate of Right Ascen(r/s): -7.943188008e-09 SQRT(A) (m 1/2): 5153.698242 Right Ascen at Week(rad): -1.271453234 Argument of Perigee(rad): -2.008147882 Mean Anom(rad): -1.431288714 Af0(s): 3.165432129e-05 Af1(s/s): 2.182787e-11 week: 361 ******** Week 361 almanac for PRN-21 ******** ID: 21 Health: 0 Eccentricity: 0.00075340271 Time of Applicability(s): 61440 Orbital Inclination(rad): 0.9628090336 Rate of Right Ascen(r/s): -7.794610391e-09 SQRT(A) (m 1/2): 5153.72168 Right Ascen at Week(rad): -2.277344658 Argument of Perigee(rad): -0.3238684351 Mean Anom(rad): -1.71696305 Af0(s): 0.0003210652588 Af1(s/s): 3.637979e-12 week: 361 ******** Week 361 almanac for PRN-22 ******** ID: 22 Health: 0 Eccentricity: 0.01208686829 Time of Applicability(s): 61440 Orbital Inclination(rad): 0.9577037538 Rate of Right Ascen(r/s): -7.760323248e-09 SQRT(A) (m 1/2): 5153.578125 Right Ascen at Week(rad): 0.9337917052 Argument of Perigee(rad): -0.9931851493 Mean Anom(rad): 2.64928519 Af0(s): -2.939329834e-05 Af1(s/s): 3.637979e-12 week: 361 ******** Week 361 almanac for PRN-23 ******** ID: 23 Health: 0 Eccentricity: 0.006042957306 Time of Applicability(s): 61440 Orbital Inclination(rad): 0.9879339611 Rate of Right Ascen(r/s): -7.508884204e-09 SQRT(A) (m 1/2): 5153.664551 Right Ascen at Week(rad): -2.318035221 Argument of Perigee(rad): -2.738461305 Mean Anom(rad): -1.121320108 Af0(s): 0.0004913956543 Af1(s/s): 3.637979e-12 week: 361 ******** Week 361 almanac for PRN-24 ******** ID: 24 Health: 0 Eccentricity: 0.01791954041 Time of Applicability(s): 61440 Orbital Inclination(rad): 0.9352513085 Rate of Right Ascen(r/s): -8.114623721e-09 SQRT(A) (m 1/2): 5153.587402 Right Ascen at Week(rad): -0.3126122519 Argument of Perigee(rad): 1.136141972 Mean Anom(rad): 0.2242214775 Af0(s): -7.159906006e-05 Af1(s/s): 1.818989e-11 week: 361 ******** Week 361 almanac for PRN-25 ******** ID: 25 Health: 0 Eccentricity: 0.0129327774 Time of Applicability(s): 61440 Orbital Inclination(rad): 0.9475591074 Rate of Right Ascen(r/s): -7.840326581e-09 SQRT(A) (m 1/2): 5153.67334 Right Ascen at Week(rad): 0.8195779222 Argument of Perigee(rad): 1.157530069 Mean Anom(rad): -1.553885088 Af0(s): 0.0003466901855 Af1(s/s): -3.637979e-12 week: 361 ******** Week 361 almanac for PRN-26 ******** ID: 26 Health: 0 Eccentricity: 0.01101112366 Time of Applicability(s): 61440 Orbital Inclination(rad): 0.9283783555 Rate of Right Ascen(r/s): -8.011762293e-09 SQRT(A) (m 1/2): 5153.66748 Right Ascen at Week(rad): 0.7449364244 Argument of Perigee(rad): 0.7097612262 Mean Anom(rad): -2.374423621 Af0(s): -0.000266800708 Af1(s/s): -3.637979e-12 week: 361 ******** Week 361 almanac for PRN-27 ******** ID: 27 Health: 0 Eccentricity: 0.01436758041 Time of Applicability(s): 61440 Orbital Inclination(rad): 0.9522689078 Rate of Right Ascen(r/s): -8.148910863e-09 SQRT(A) (m 1/2): 5153.61377 Right Ascen at Week(rad): 1.875150699 Argument of Perigee(rad): 0.8825572711 Mean Anom(rad): 2.170227783 Af0(s): -4.898883057e-05 Af1(s/s): -1.091394e-11 week: 361 ******** Week 361 almanac for PRN-28 ******** ID: 28 Health: 0 Eccentricity: 0.0004234313965 Time of Applicability(s): 61440 Orbital Inclination(rad): 0.9622158145 Rate of Right Ascen(r/s): -7.828897533e-09 SQRT(A) (m 1/2): 5153.743164 Right Ascen at Week(rad): -0.2297124996 Argument of Perigee(rad): -0.01479040607 Mean Anom(rad): -0.4158458633 Af0(s): -0.000459741333 Af1(s/s): 7.275958e-12 week: 361 ******** Week 361 almanac for PRN-29 ******** ID: 29 Health: 0 Eccentricity: 0.00337600708 Time of Applicability(s): 61440 Orbital Inclination(rad): 0.9615207295 Rate of Right Ascen(r/s): -8.080336578e-09 SQRT(A) (m 1/2): 5153.705078 Right Ascen at Week(rad): 1.964636907 Argument of Perigee(rad): 2.740410989 Mean Anom(rad): 2.033230491 Af0(s): -0.0002863962402 Af1(s/s): 7.275958e-12 week: 361 ******** Week 361 almanac for PRN-30 ******** ID: 30 Health: 0 Eccentricity: 0.008079528809 Time of Applicability(s): 61440 Orbital Inclination(rad): 0.936557589 Rate of Right Ascen(r/s): -8.091765626e-09 SQRT(A) (m 1/2): 5153.695801 Right Ascen at Week(rad): -0.2131214637 Argument of Perigee(rad): -2.315322292 Mean Anom(rad): -0.9331344453 Af0(s): 0.0001153121704 Af1(s/s): 1.455192e-11 week: 361 ******** Week 361 almanac for PRN-31 ******** ID: 31 Health: 0 Eccentricity: 0.01085948944 Time of Applicability(s): 61440 Orbital Inclination(rad): 0.9550612322 Rate of Right Ascen(r/s): -7.863184676e-09 SQRT(A) (m 1/2): 5153.516602 Right Ascen at Week(rad): -0.1798038204 Argument of Perigee(rad): 0.9363720586 Mean Anom(rad): -1.852411756 Af0(s): -0.0001288783081 Af1(s/s): 3.637979e-12 week: 361 ******** Week 361 almanac for PRN-32 ******** ID: 32 Health: 0 Eccentricity: 0.009359836578 Time of Applicability(s): 61440 Orbital Inclination(rad): 0.9676386763 Rate of Right Ascen(r/s): -7.874613723e-09 SQRT(A) (m 1/2): 5153.679199 Right Ascen at Week(rad): -1.260010921 Argument of Perigee(rad): -1.996599584 Mean Anom(rad): 2.743356112 Af0(s): -4.59741333e-05 Af1(s/s): 1.818989e-11 week: 361